Regional Weather Roundup
Issued by NWS

Home | Current Version | Previous Version | Text Only | Print | Product List | Glossary Off
Versions: 1 2 3 4 5 6 7 8 9 10 11 12 13 14 15 16 17 18 19 20 21 22 23 24 25 26 27 28 29 30 31 32 33 34 35 36 37 38 39 40 41 42 43 44 45 46 47 48 49 50

000
ASUS43 KBIS 181302
RWRND

NORTH DAKOTA REGIONAL WEATHER ROUNDUP
NATIONAL WEATHER SERVICE BISMARCK ND
800 AM CDT WED OCT 18 2017

NOTE: "FAIR" INDICATES FEW OR NO CLOUDS BELOW 12,000 FEET WITH NO
SIGNIFICANT WEATHER AND/OR OBSTRUCTIONS TO VISIBILITY.


NDZ001>003-009>011-017-181400-
NORTHWEST NORTH DAKOTA

CITY           SKY/WX    TMP DP  RH WIND       PRES   REMARKS
WILLISTON      CLEAR     41  22  46 W13       29.90R
MINOT          MOCLDY    47  27  45 W20G28    29.78R
MINOT AFB      MOCLDY    45  26  46 W18       29.76R
$$

NDZ018>021-031>035-040>046-181400-
SOUTHWEST NORTH DAKOTA

CITY           SKY/WX    TMP DP  RH WIND       PRES   REMARKS
BISMARCK       CLOUDY    54  32  43 NW18      29.86R
DICKINSON      CLOUDY    42  27  55 NW13      29.90R
GARRISON         N/A     47  27  45 NW22G33   29.84R
HETTINGER ARPT CLOUDY    45  25  45 NW14      29.94R
$$

NDZ004>008-012>016-024-026-027-054-181400-
NORTHEAST NORTH DAKOTA

CITY           SKY/WX    TMP DP  RH WIND       PRES   REMARKS
GRAND FORKS    CLOUDY    60  34  37 W15G24    29.63R
GRND FRKS AFB  CLOUDY    58  32  37 W14       29.64R
DEVILS LAKE    CLOUDY    50  34  54 W24G35    29.72R
$$

NDZ022-023-025-028>030-036>039-047>053-181400-
SOUTHEAST NORTH DAKOTA

CITY           SKY/WX    TMP DP  RH WIND       PRES   REMARKS
FARGO          CLOUDY    51  41  68 SW9       29.69R
JAMESTOWN      CLOUDY    55  30  38 NW16      29.74R
$$





USA.gov is the U.S. government's official web portal to all federal, state and local government web resources and services.